Time,TemperatureF,DewpointF,PressureIn,WindDirection,WindDirectionDegrees,WindSpeedMPH,WindSpeedGustMPH,Humidity,HourlyPrecipIn,Conditions,Clouds,dailyrainin,SoftwareType,DateUTC
2013-02-11 00:00:00,19.9,5.2,30.07,East,90,0.0,0.0,52,0.00,,SKC,0.00,VWS V14.01,2013-02-11 08:00:00,
2013-02-11 00:05:00,20.1,6.2,30.07,East,93,0.0,0.0,54,0.00,,SKC,0.00,VWS V14.01,2013-02-11 08:05:00,
2013-02-11 00:10:00,20.5,6.5,30.07,East,96,0.0,0.0,54,0.00,,SKC,0.00,VWS V14.01,2013-02-11 08:10:00,
2013-02-11 00:15:00,20.3,5.9,30.07,East,96,0.0,0.0,53,0.00,,SKC,0.00,VWS V14.01,2013-02-11 08:15:00,
2013-02-11 00:20:00,19.8,5.4,30.07,East,96,0.0,0.0,53,0.00,,SKC,0.00,VWS V14.01,2013-02-11 08:20:00,
2013-02-11 00:25:00,19.4,5.1,30.07,East,96,0.0,0.0,53,0.00,,SKC,0.00,VWS V14.01,2013-02-11 08:25:00,
2013-02-11 00:30:00,19.0,5.1,30.07,East,96,0.0,0.0,54,0.00,,SKC,0.00,VWS V14.01,2013-02-11 08:30:00,
2013-02-11 00:35:00,18.5,4.6,30.07,East,96,0.0,0.0,54,0.00,,SKC,0.00,VWS V14.01,2013-02-11 08:35:00,
2013-02-11 00:40:00,18.3,4.9,30.07,East,96,0.0,0.0,55,0.00,,SKC,0.00,VWS V14.01,2013-02-11 08:40:00,
2013-02-11 00:45:00,18.3,5.3,30.07,East,96,0.0,0.0,56,0.00,,SKC,0.00,VWS V14.01,2013-02-11 08:45:00,
2013-02-11 00:50:00,18.3,5.3,30.07,East,96,0.0,0.0,56,0.00,,SKC,0.00,VWS V14.01,2013-02-11 08:50:00,
2013-02-11 00:55:00,18.3,5.7,30.07,East,96,0.0,0.0,57,0.00,,SKC,0.00,VWS V14.01,2013-02-11 08:55:00,
2013-02-11 01:00:00,18.1,5.1,30.07,East,96,0.0,0.0,56,0.00,,SKC,0.00,VWS V14.01,2013-02-11 09:00:00,
2013-02-11 01:05:00,18.3,5.7,30.07,East,96,0.0,0.0,57,0.00,,SKC,0.00,VWS V14.01,2013-02-11 09:05:00,
2013-02-11 01:10:00,17.8,5.1,30.07,East,96,0.0,0.0,57,0.00,,SKC,0.00,VWS V14.01,2013-02-11 09:10:00,
2013-02-11 01:15:00,18.0,5.7,30.07,East,96,0.0,0.0,58,0.00,,SKC,0.00,VWS V14.01,2013-02-11 09:15:00,
2013-02-11 01:20:00,17.8,5.5,30.07,East,96,0.0,0.0,58,0.00,,SKC,0.00,VWS V14.01,2013-02-11 09:20:00,
2013-02-11 01:25:00,17.6,5.3,30.07,East,96,0.0,0.0,58,0.00,,SKC,0.00,VWS V14.01,2013-02-11 09:25:00,
2013-02-11 01:30:00,17.6,5.7,30.07,East,96,0.0,0.0,59,0.00,,SKC,0.00,VWS V14.01,2013-02-11 09:30:00,
2013-02-11 01:35:00,17.4,5.6,30.07,East,97,0.0,0.0,59,0.00,,SKC,0.00,VWS V14.01,2013-02-11 09:35:00,
2013-02-11 01:40:00,17.4,5.6,30.07,East,99,0.0,0.0,59,0.00,,SKC,0.00,VWS V14.01,2013-02-11 09:40:00,
2013-02-11 01:45:00,17.8,6.3,30.07,East,99,0.0,0.0,60,0.00,,SKC,0.00,VWS V14.01,2013-02-11 09:45:00,
2013-02-11 01:50:00,18.1,6.2,30.07,East,99,0.0,0.0,59,0.00,,SKC,0.00,VWS V14.01,2013-02-11 09:50:00,
2013-02-11 01:55:00,18.0,6.1,30.07,East,99,0.0,0.0,59,0.00,,SKC,0.00,VWS V14.01,2013-02-11 09:55:00,
2013-02-11 02:00:00,18.1,6.2,30.07,East,99,0.0,0.0,59,0.00,,SKC,0.00,VWS V14.01,2013-02-11 10:00:00,
2013-02-11 02:05:00,18.3,6.0,30.07,East,99,0.0,0.0,58,0.00,,SKC,0.00,VWS V14.01,2013-02-11 10:05:00,
2013-02-11 02:10:00,17.8,5.1,30.07,East,99,0.0,0.0,57,0.00,,SKC,0.00,VWS V14.01,2013-02-11 10:10:00,
2013-02-11 02:15:00,17.4,4.8,30.07,East,99,0.0,0.0,57,0.00,,SKC,0.00,VWS V14.01,2013-02-11 10:15:00,
2013-02-11 02:20:00,16.9,4.3,30.04,East,99,0.0,0.0,57,0.00,,SKC,0.00,VWS V14.01,2013-02-11 10:20:00,
2013-02-11 02:25:00,16.9,5.4,30.04,East,99,0.0,0.0,60,0.00,,SKC,0.00,VWS V14.01,2013-02-11 10:25:00,
2013-02-11 02:30:00,16.9,5.4,30.04,East,99,0.0,0.0,60,0.00,,SKC,0.00,VWS V14.01,2013-02-11 10:30:00,
2013-02-11 02:35:00,16.7,4.9,30.07,East,99,0.0,0.0,59,0.00,,SKC,0.00,VWS V14.01,2013-02-11 10:35:00,
2013-02-11 02:40:00,17.1,5.9,30.07,East,99,0.0,0.0,61,0.00,,SKC,0.00,VWS V14.01,2013-02-11 10:40:00,
2013-02-11 02:45:00,17.2,5.8,30.07,East,99,0.0,0.0,60,0.00,,SKC,0.00,VWS V14.01,2013-02-11 10:45:00,
2013-02-11 02:50:00,16.9,5.4,30.07,East,99,0.0,0.0,60,0.00,,SKC,0.00,VWS V14.01,2013-02-11 10:50:00,
2013-02-11 02:55:00,16.9,5.4,30.07,East,99,0.0,0.0,60,0.00,,SKC,0.00,VWS V14.01,2013-02-11 10:55:00,
2013-02-11 03:00:00,17.4,6.3,30.07,East,99,0.0,0.0,61,0.00,,SKC,0.00,VWS V14.01,2013-02-11 11:00:00,
2013-02-11 03:05:00,17.8,6.3,30.07,East,99,0.0,0.0,60,0.00,,SKC,0.00,VWS V14.01,2013-02-11 11:05:00,
2013-02-11 03:10:00,17.8,5.5,30.07,East,98,0.0,0.0,58,0.00,,SKC,0.00,VWS V14.01,2013-02-11 11:10:00,
2013-02-11 03:15:00,17.8,5.1,30.07,East,98,0.0,0.0,57,0.00,,SKC,0.00,VWS V14.01,2013-02-11 11:15:00,
2013-02-11 03:20:00,17.4,4.8,30.04,East,98,0.0,0.0,57,0.00,,SKC,0.00,VWS V14.01,2013-02-11 11:20:00,
2013-02-11 03:25:00,17.1,4.5,30.04,East,98,0.0,0.0,57,0.00,,SKC,0.00,VWS V14.01,2013-02-11 11:25:00,
2013-02-11 03:30:00,16.9,4.3,30.04,East,98,0.0,0.0,57,0.00,,SKC,0.00,VWS V14.01,2013-02-11 11:30:00,
2013-02-11 03:35:00,16.7,4.5,30.04,NE,41,0.0,0.0,58,0.00,,SKC,0.00,VWS V14.01,2013-02-11 11:35:00,
2013-02-11 03:40:00,17.1,5.2,30.04,ENE,72,0.0,0.0,59,0.00,,SKC,0.00,VWS V14.01,2013-02-11 11:40:00,
2013-02-11 03:45:00,17.6,5.7,30.04,ENE,72,0.0,0.0,59,0.00,,SKC,0.00,VWS V14.01,2013-02-11 11:45:00,
2013-02-11 03:50:00,17.8,5.5,30.04,ENE,72,0.0,0.0,58,0.00,,SKC,0.00,VWS V14.01,2013-02-11 11:50:00,
2013-02-11 03:55:00,17.4,4.8,30.04,ENE,72,0.0,0.0,57,0.00,,SKC,0.00,VWS V14.01,2013-02-11 11:55:00,
2013-02-11 04:00:00,16.9,4.3,30.04,ENE,72,0.0,0.0,57,0.00,,SKC,0.00,VWS V14.01,2013-02-11 12:00:00,
2013-02-11 04:05:00,16.9,4.7,30.04,ENE,73,0.0,0.0,58,0.00,,SKC,0.00,VWS V14.01,2013-02-11 12:05:00,
2013-02-11 04:10:00,16.7,4.9,30.04,ENE,74,0.0,0.0,59,0.00,,SKC,0.00,VWS V14.01,2013-02-11 12:10:00,
2013-02-11 04:15:00,16.5,4.7,30.04,ENE,74,0.0,0.0,59,0.00,,SKC,0.00,VWS V14.01,2013-02-11 12:15:00,
2013-02-11 04:20:00,16.2,4.4,30.04,ENE,74,0.0,0.0,59,0.00,,SKC,0.00,VWS V14.01,2013-02-11 12:20:00,
2013-02-11 04:25:00,16.0,4.2,30.04,ENE,74,0.0,0.0,59,0.00,,SKC,0.00,VWS V14.01,2013-02-11 12:25:00,
2013-02-11 04:30:00,15.8,4.4,30.04,ENE,74,0.0,0.0,60,0.00,,SKC,0.00,VWS V14.01,2013-02-11 12:30:00,
2013-02-11 04:35:00,15.1,3.3,30.04,ENE,74,0.0,0.0,59,0.00,,SKC,0.00,VWS V14.01,2013-02-11 12:35:00,
2013-02-11 04:40:00,15.1,3.7,30.04,ENE,74,0.0,0.0,60,0.00,,SKC,0.00,VWS V14.01,2013-02-11 12:40:00,
2013-02-11 04:45:00,14.9,3.5,30.04,ENE,74,0.0,0.0,60,0.00,,SKC,0.00,VWS V14.01,2013-02-11 12:45:00,
2013-02-11 04:50:00,14.4,3.0,30.04,ENE,74,0.0,0.0,60,0.00,,SKC,0.00,VWS V14.01,2013-02-11 12:50:00,
2013-02-11 04:55:00,14.2,2.9,30.04,ENE,74,0.0,0.0,60,0.00,,SKC,0.00,VWS V14.01,2013-02-11 12:55:00,
2013-02-11 05:00:00,14.7,5.1,30.04,ENE,74,0.0,0.0,65,0.00,,SKC,0.00,VWS V14.01,2013-02-11 13:00:00,
2013-02-11 05:05:00,15.4,6.5,30.04,ENE,78,0.0,0.0,67,0.00,,SKC,0.00,VWS V14.01,2013-02-11 13:05:00,
2013-02-11 05:10:00,16.5,7.8,30.04,ENE,78,0.0,0.0,68,0.00,,SKC,0.00,VWS V14.01,2013-02-11 13:10:00,
2013-02-11 05:15:00,17.1,7.7,30.04,East,79,0.0,0.0,66,0.00,,SKC,0.00,VWS V14.01,2013-02-11 13:15:00,
2013-02-11 05:20:00,17.1,7.0,30.04,East,79,0.0,0.0,64,0.00,,SKC,0.00,VWS V14.01,2013-02-11 13:20:00,
2013-02-11 05:25:00,17.1,6.3,30.04,East,79,0.0,0.0,62,0.00,,SKC,0.00,VWS V14.01,2013-02-11 13:25:00,
2013-02-11 05:30:00,16.7,5.6,30.04,East,79,0.0,0.0,61,0.00,,SKC,0.00,VWS V14.01,2013-02-11 13:30:00,
2013-02-11 05:35:00,16.0,4.6,30.04,East,79,0.0,0.0,60,0.00,,SKC,0.00,VWS V14.01,2013-02-11 13:35:00,
2013-02-11 05:40:00,15.8,5.1,30.04,East,79,0.0,0.0,62,0.00,,SKC,0.00,VWS V14.01,2013-02-11 13:40:00,
2013-02-11 05:45:00,15.3,4.2,30.04,East,79,0.0,0.0,61,0.00,,SKC,0.00,VWS V14.01,2013-02-11 13:45:00,
2013-02-11 05:50:00,14.9,3.9,30.07,East,80,0.0,0.0,61,0.00,,SKC,0.00,VWS V14.01,2013-02-11 13:50:00,
2013-02-11 05:55:00,15.3,4.9,30.07,East,80,0.0,0.0,63,0.00,,SKC,0.00,VWS V14.01,2013-02-11 13:55:00,
2013-02-11 06:00:00,16.2,6.5,30.07,ESE,109,0.0,2.2,65,0.00,,SKC,0.00,VWS V14.01,2013-02-11 14:00:00,
2013-02-11 06:05:00,16.9,6.5,30.07,ESE,108,4.0,4.0,63,0.00,,SKC,0.00,VWS V14.01,2013-02-11 14:05:00,
2013-02-11 06:10:00,17.2,6.1,30.07,ESE,110,0.0,0.0,61,0.00,,SKC,0.00,VWS V14.01,2013-02-11 14:10:00,
2013-02-11 06:15:00,17.4,5.6,30.07,ESE,109,2.7,2.7,59,0.00,,SKC,0.00,VWS V14.01,2013-02-11 14:15:00,
2013-02-11 06:20:00,17.6,5.0,30.07,East,87,0.0,0.0,57,0.00,,SKC,0.00,VWS V14.01,2013-02-11 14:20:00,
2013-02-11 06:25:00,17.8,5.1,30.07,East,93,2.7,2.7,57,0.00,,SKC,0.00,VWS V14.01,2013-02-11 14:25:00,
2013-02-11 06:30:00,17.8,4.8,30.07,East,95,2.7,3.6,56,0.00,,SKC,0.00,VWS V14.01,2013-02-11 14:30:00,
2013-02-11 06:35:00,17.6,4.6,30.07,East,95,0.0,0.0,56,0.00,,SKC,0.00,VWS V14.01,2013-02-11 14:35:00,
2013-02-11 06:40:00,17.4,4.4,30.07,East,95,0.0,0.0,56,0.00,,SKC,0.00,VWS V14.01,2013-02-11 14:40:00,
2013-02-11 06:45:00,17.1,4.1,30.07,East,95,0.0,0.0,56,0.00,,SKC,0.00,VWS V14.01,2013-02-11 14:45:00,
2013-02-11 06:50:00,16.2,2.8,30.07,East,95,0.0,0.0,55,0.00,,SKC,0.00,VWS V14.01,2013-02-11 14:50:00,
2013-02-11 06:55:00,15.4,2.2,30.07,East,95,0.0,0.0,55,0.00,,SKC,0.00,VWS V14.01,2013-02-11 14:55:00,
2013-02-11 07:00:00,15.1,2.2,30.07,East,95,0.0,0.0,56,0.00,,SKC,0.00,VWS V14.01,2013-02-11 15:00:00,
2013-02-11 07:05:00,15.1,2.2,30.07,East,95,0.0,0.0,56,0.00,,SKC,0.00,VWS V14.01,2013-02-11 15:05:00,
2013-02-11 07:10:00,15.1,2.6,30.07,East,95,0.0,0.0,57,0.00,,SKC,0.00,VWS V14.01,2013-02-11 15:10:00,
2013-02-11 07:15:00,15.8,4.8,30.07,East,97,2.2,3.1,61,0.00,,SKC,0.00,VWS V14.01,2013-02-11 15:15:00,
2013-02-11 07:20:00,16.9,6.1,30.07,East,97,0.0,0.0,62,0.00,,SKC,0.00,VWS V14.01,2013-02-11 15:20:00,
2013-02-11 07:25:00,17.6,6.1,30.07,ESE,104,2.7,3.1,60,0.00,,SKC,0.00,VWS V14.01,2013-02-11 15:25:00,
2013-02-11 07:30:00,18.3,5.7,30.07,ESE,121,3.6,3.6,57,0.00,,SKC,0.00,VWS V14.01,2013-02-11 15:30:00,
2013-02-11 07:35:00,19.4,5.9,30.10,SE,124,2.7,3.6,55,0.00,,SKC,0.00,VWS V14.01,2013-02-11 15:35:00,
2013-02-11 07:40:00,20.8,6.4,30.10,SE,126,2.7,3.6,53,0.00,,SKC,0.00,VWS V14.01,2013-02-11 15:40:00,
2013-02-11 07:45:00,22.1,5.0,30.10,SE,125,2.7,3.6,47,0.00,,SKC,0.00,VWS V14.01,2013-02-11 15:45:00,
2013-02-11 07:50:00,23.5,5.8,30.10,ESE,123,0.0,0.0,46,0.00,,SKC,0.00,VWS V14.01,2013-02-11 15:50:00,
2013-02-11 07:55:00,25.2,6.3,30.10,SE,124,0.0,0.0,44,0.00,,SKC,0.00,VWS V14.01,2013-02-11 15:55:00,
2013-02-11 08:00:00,26.4,6.4,30.10,SE,127,2.2,3.1,42,0.00,,SKC,0.00,VWS V14.01,2013-02-11 16:00:00,
2013-02-11 08:05:00,27.7,7.1,30.07,SE,129,2.7,3.6,41,0.00,,SKC,0.00,VWS V14.01,2013-02-11 16:05:00,
2013-02-11 08:10:00,28.4,6.1,30.07,SE,132,4.0,4.5,38,0.00,,SKC,0.00,VWS V14.01,2013-02-11 16:10:00,
2013-02-11 08:15:00,28.6,5.0,30.07,SE,127,4.0,4.0,36,0.00,,SKC,0.00,VWS V14.01,2013-02-11 16:15:00,
2013-02-11 08:20:00,28.9,4.7,30.10,SE,139,3.1,4.9,35,0.00,,SKC,0.00,VWS V14.01,2013-02-11 16:20:00,
2013-02-11 08:25:00,28.9,4.7,30.10,SE,138,4.0,4.0,35,0.00,,SKC,0.00,VWS V14.01,2013-02-11 16:25:00,
2013-02-11 08:30:00,29.5,4.6,30.10,SSE,149,3.6,4.0,34,0.00,,SKC,0.00,VWS V14.01,2013-02-11 16:30:00,
2013-02-11 08:35:00,30.0,5.1,30.10,SE,126,2.2,3.6,34,0.00,,SKC,0.00,VWS V14.01,2013-02-11 16:35:00,
2013-02-11 08:40:00,30.9,5.2,30.10,SE,124,3.1,3.1,33,0.00,,SKC,0.00,VWS V14.01,2013-02-11 16:40:00,
2013-02-11 08:45:00,32.0,6.2,30.10,SE,132,3.1,3.1,33,0.00,,SKC,0.00,VWS V14.01,2013-02-11 16:45:00,
2013-02-11 08:50:00,33.1,6.4,30.10,SE,141,2.7,2.7,32,0.00,,SKC,0.00,VWS V14.01,2013-02-11 16:50:00,
2013-02-11 08:55:00,33.8,6.4,30.10,SE,139,0.0,0.0,31,0.00,,SKC,0.00,VWS V14.01,2013-02-11 16:55:00,
2013-02-11 09:00:00,34.2,6.7,30.10,SE,140,0.0,0.0,31,0.00,,SKC,0.00,VWS V14.01,2013-02-11 17:00:00,
2013-02-11 09:05:00,34.0,6.5,30.10,SSE,154,0.0,3.1,31,0.00,,SKC,0.00,VWS V14.01,2013-02-11 17:05:00,
2013-02-11 09:10:00,34.0,6.5,30.10,WNW,295,0.0,0.0,31,0.00,,SKC,0.00,VWS V14.01,2013-02-11 17:10:00,
2013-02-11 09:15:00,34.3,6.9,30.10,WNW,297,0.0,0.0,31,0.00,,SKC,0.00,VWS V14.01,2013-02-11 17:15:00,
2013-02-11 09:20:00,34.2,6.7,30.13,WNW,294,0.0,0.0,31,0.00,,SKC,0.00,VWS V14.01,2013-02-11 17:20:00,
2013-02-11 09:25:00,34.0,6.5,30.13,WNW,285,4.0,4.0,31,0.00,,SKC,0.00,VWS V14.01,2013-02-11 17:25:00,
2013-02-11 09:30:00,34.3,6.9,30.13,North,8,0.0,0.0,31,0.00,,SKC,0.00,VWS V14.01,2013-02-11 17:30:00,
2013-02-11 09:35:00,34.7,7.2,30.13,North,7,0.0,0.0,31,0.00,,SKC,0.00,VWS V14.01,2013-02-11 17:35:00,
2013-02-11 09:40:00,35.2,6.9,30.13,NNW,344,0.0,0.0,30,0.00,,SKC,0.00,VWS V14.01,2013-02-11 17:40:00,
2013-02-11 09:45:00,35.4,7.1,30.13,North,353,0.0,0.0,30,0.00,,SKC,0.00,VWS V14.01,2013-02-11 17:45:00,
2013-02-11 09:50:00,35.8,7.4,30.16,WNW,287,5.4,5.8,30,0.00,,SKC,0.00,VWS V14.01,2013-02-11 17:50:00,
2013-02-11 09:55:00,36.1,7.0,30.16,NNW,345,0.0,0.0,29,0.00,,SKC,0.00,VWS V14.01,2013-02-11 17:55:00,
2013-02-11 10:00:00,35.8,6.7,30.16,NNW,335,5.4,5.4,29,0.00,,SKC,0.00,VWS V14.01,2013-02-11 18:00:00,
2013-02-11 10:05:00,36.3,7.9,30.16,NNW,341,5.4,5.4,30,0.00,,SKC,0.00,VWS V14.01,2013-02-11 18:05:00,
2013-02-11 10:10:00,36.9,8.3,30.16,NNW,344,3.6,4.0,30,0.00,,SKC,0.00,VWS V14.01,2013-02-11 18:10:00,
2013-02-11 10:15:00,37.2,7.9,30.16,North,0,4.0,4.0,29,0.00,,SKC,0.00,VWS V14.01,2013-02-11 18:15:00,
2013-02-11 10:20:00,37.4,8.1,30.16,WNW,302,3.6,4.0,29,0.00,,SKC,0.00,VWS V14.01,2013-02-11 18:20:00,
2013-02-11 10:25:00,37.4,8.1,30.16,NW,310,5.4,6.3,29,0.00,,SKC,0.00,VWS V14.01,2013-02-11 18:25:00,
2013-02-11 10:30:00,37.4,8.1,30.16,WNW,303,8.1,8.1,29,0.00,,SKC,0.00,VWS V14.01,2013-02-11 18:30:00,
2013-02-11 10:35:00,37.9,8.5,30.19,NNW,343,3.1,3.1,29,0.00,,SKC,0.00,VWS V14.01,2013-02-11 18:35:00,
2013-02-11 10:40:00,37.9,8.5,30.19,NW,314,4.9,4.9,29,0.00,,SKC,0.00,VWS V14.01,2013-02-11 18:40:00,
2013-02-11 10:45:00,38.1,6.3,30.19,NW,312,6.3,6.3,26,0.00,,SKC,0.00,VWS V14.01,2013-02-11 18:45:00,
2013-02-11 10:50:00,38.1,6.3,30.19,NNW,343,2.7,4.0,26,0.00,,SKC,0.00,VWS V14.01,2013-02-11 18:50:00,
2013-02-11 10:55:00,37.9,6.1,30.19,NNW,340,2.2,2.2,26,0.00,,SKC,0.00,VWS V14.01,2013-02-11 18:55:00,
2013-02-11 11:00:00,38.8,6.9,30.19,NW,322,3.6,6.7,26,0.00,,SKC,0.00,VWS V14.01,2013-02-11 19:00:00,
2013-02-11 11:05:00,39.7,7.7,30.19,West,280,3.6,3.6,26,0.00,,SKC,0.00,VWS V14.01,2013-02-11 19:05:00,
2013-02-11 11:10:00,39.7,7.7,30.19,North,357,0.0,0.0,26,0.00,,SKC,0.00,VWS V14.01,2013-02-11 19:10:00,
2013-02-11 11:15:00,39.6,7.5,30.19,North,357,3.1,3.1,26,0.00,,SKC,0.00,VWS V14.01,2013-02-11 19:15:00,
2013-02-11 11:20:00,39.9,5.1,30.19,NNW,345,3.1,3.6,23,0.00,,SKC,0.00,VWS V14.01,2013-02-11 19:20:00,
2013-02-11 11:25:00,40.3,5.4,30.19,SSE,160,0.0,0.0,23,0.00,,SKC,0.00,VWS V14.01,2013-02-11 19:25:00,
2013-02-11 11:30:00,40.8,5.9,30.19,NNE,16,2.7,2.7,23,0.00,,SKC,0.00,VWS V14.01,2013-02-11 19:30:00,
2013-02-11 11:35:00,40.6,5.8,30.19,WSW,256,2.2,4.0,23,0.00,,SKC,0.00,VWS V14.01,2013-02-11 19:35:00,
2013-02-11 11:40:00,41.2,6.2,30.19,West,269,0.0,2.2,23,0.00,,SKC,0.00,VWS V14.01,2013-02-11 19:40:00,
2013-02-11 11:45:00,42.1,7.0,30.19,SSE,157,0.0,2.2,23,0.00,,SKC,0.00,VWS V14.01,2013-02-11 19:45:00,
2013-02-11 11:50:00,42.8,7.6,30.19,NNW,337,3.6,4.0,23,0.00,,SKC,0.00,VWS V14.01,2013-02-11 19:50:00,
2013-02-11 11:55:00,42.4,7.3,30.19,NE,55,0.0,0.0,23,0.00,,SKC,0.00,VWS V14.01,2013-02-11 19:55:00,
2013-02-11 12:00:00,41.9,6.8,30.19,SE,135,3.6,5.4,23,0.00,,SKC,0.00,VWS V14.01,2013-02-11 20:00:00,
2013-02-11 12:05:00,42.4,5.3,30.19,SW,218,3.1,4.0,21,0.00,,SKC,0.00,VWS V14.01,2013-02-11 20:05:00,
2013-02-11 12:10:00,42.3,5.1,30.19,South,191,0.0,4.0,21,0.00,,SKC,0.00,VWS V14.01,2013-02-11 20:10:00,
2013-02-11 12:15:00,42.8,4.5,30.19,WSW,257,3.1,4.0,20,0.00,,SKC,0.00,VWS V14.01,2013-02-11 20:15:00,
2013-02-11 12:20:00,43.0,4.7,30.19,SSW,206,0.0,4.0,20,0.00,,SKC,0.00,VWS V14.01,2013-02-11 20:20:00,
2013-02-11 12:25:00,43.7,5.3,30.19,West,263,0.0,0.0,20,0.00,,SKC,0.00,VWS V14.01,2013-02-11 20:25:00,
2013-02-11 12:30:00,42.4,5.3,30.19,WNW,293,2.2,3.6,21,0.00,,SKC,0.00,VWS V14.01,2013-02-11 20:30:00,
2013-02-11 12:35:00,42.6,5.4,30.19,WNW,293,0.0,0.0,21,0.00,,SKC,0.00,VWS V14.01,2013-02-11 20:35:00,
2013-02-11 12:40:00,43.9,5.4,30.16,ENE,59,4.9,5.4,20,0.00,,SKC,0.00,VWS V14.01,2013-02-11 20:40:00,
2013-02-11 12:45:00,43.5,5.1,30.16,ESE,113,3.6,5.4,20,0.00,,SKC,0.00,VWS V14.01,2013-02-11 20:45:00,
2013-02-11 12:50:00,43.7,5.3,30.16,NNE,33,3.6,3.6,20,0.00,,SKC,0.00,VWS V14.01,2013-02-11 20:50:00,
2013-02-11 12:55:00,44.4,5.9,30.16,NNW,341,0.0,0.0,20,0.00,,SKC,0.00,VWS V14.01,2013-02-11 20:55:00,
2013-02-11 13:00:00,44.1,5.6,30.16,North,353,2.7,4.9,20,0.00,,SKC,0.00,VWS V14.01,2013-02-11 21:00:00,
2013-02-11 13:05:00,45.0,6.3,30.16,NW,320,8.1,8.1,20,0.00,,SKC,0.00,VWS V14.01,2013-02-11 21:05:00,
2013-02-11 13:10:00,45.3,6.6,30.16,North,353,3.1,4.0,20,0.00,,SKC,0.00,VWS V14.01,2013-02-11 21:10:00,
2013-02-11 13:15:00,45.7,6.9,30.16,WNW,299,0.0,0.0,20,0.00,,SKC,0.00,VWS V14.01,2013-02-11 21:15:00,
2013-02-11 13:20:00,45.9,7.1,30.16,NW,317,4.0,4.0,20,0.00,,SKC,0.00,VWS V14.01,2013-02-11 21:20:00,
2013-02-11 13:25:00,45.9,7.1,30.16,WNW,287,7.6,8.1,20,0.00,,SKC,0.00,VWS V14.01,2013-02-11 21:25:00,
2013-02-11 13:30:00,44.8,6.2,30.16,SSE,168,0.0,0.0,20,0.00,,SKC,0.00,VWS V14.01,2013-02-11 21:30:00,
2013-02-11 13:35:00,45.5,6.8,30.16,WNW,299,3.1,4.0,20,0.00,,SKC,0.00,VWS V14.01,2013-02-11 21:35:00,
2013-02-11 13:40:00,46.2,7.4,30.16,WNW,282,0.0,0.0,20,0.00,,SKC,0.00,VWS V14.01,2013-02-11 21:40:00,
2013-02-11 13:45:00,46.8,6.7,30.16,South,176,0.0,0.0,19,0.00,,SKC,0.00,VWS V14.01,2013-02-11 21:45:00,
2013-02-11 13:50:00,46.9,6.8,30.16,NNW,340,3.1,3.1,19,0.00,,SKC,0.00,VWS V14.01,2013-02-11 21:50:00,
2013-02-11 13:55:00,46.8,6.7,30.16,North,353,0.0,0.0,19,0.00,,SKC,0.00,VWS V14.01,2013-02-11 21:55:00,
2013-02-11 14:00:00,46.8,6.7,30.16,SW,235,0.0,0.0,19,0.00,,SKC,0.00,VWS V14.01,2013-02-11 22:00:00,
2013-02-11 14:05:00,46.2,7.4,30.16,WSW,246,0.0,0.0,20,0.00,,SKC,0.00,VWS V14.01,2013-02-11 22:05:00,
2013-02-11 14:10:00,46.6,6.5,30.16,NE,45,0.0,0.0,19,0.00,,SKC,0.00,VWS V14.01,2013-02-11 22:10:00,
2013-02-11 14:15:00,46.4,6.4,30.16,SE,133,3.1,5.8,19,0.00,,SKC,0.00,VWS V14.01,2013-02-11 22:15:00,
2013-02-11 14:20:00,44.8,6.2,30.16,ESE,105,0.0,0.0,20,0.00,,SKC,0.00,VWS V14.01,2013-02-11 22:20:00,
2013-02-11 14:25:00,43.9,5.4,30.16,ENE,70,2.2,3.1,20,0.00,,SKC,0.00,VWS V14.01,2013-02-11 22:25:00,
2013-02-11 14:30:00,43.7,5.3,30.16,NW,318,0.0,4.0,20,0.00,,SKC,0.00,VWS V14.01,2013-02-11 22:30:00,
2013-02-11 14:35:00,43.2,4.8,30.16,NNW,329,3.1,4.0,20,0.00,,SKC,0.00,VWS V14.01,2013-02-11 22:35:00,
2013-02-11 14:40:00,42.4,5.3,30.16,WNW,296,3.6,5.8,21,0.00,,SKC,0.00,VWS V14.01,2013-02-11 22:40:00,
2013-02-11 14:45:00,42.4,5.3,30.16,SSW,195,0.0,2.7,21,0.00,,SKC,0.00,VWS V14.01,2013-02-11 22:45:00,
2013-02-11 14:50:00,42.6,5.4,30.16,SW,228,3.1,4.0,21,0.00,,SKC,0.00,VWS V14.01,2013-02-11 22:50:00,
2013-02-11 14:55:00,42.4,5.3,30.16,WSW,237,3.1,4.0,21,0.00,,SKC,0.00,VWS V14.01,2013-02-11 22:55:00,
2013-02-11 15:00:00,42.8,4.5,30.16,West,271,5.4,5.4,20,0.00,,SKC,0.00,VWS V14.01,2013-02-11 23:00:00,
2013-02-11 15:05:00,43.2,4.8,30.16,NW,314,5.4,5.8,20,0.00,,SKC,0.00,VWS V14.01,2013-02-11 23:05:00,
2013-02-11 15:10:00,43.7,5.3,30.16,NNW,333,3.6,5.8,20,0.00,,SKC,0.00,VWS V14.01,2013-02-11 23:10:00,
2013-02-11 15:15:00,43.0,4.7,30.16,WNW,288,4.9,5.4,20,0.00,,SKC,0.00,VWS V14.01,2013-02-11 23:15:00,
2013-02-11 15:20:00,43.3,5.0,30.16,NNW,329,4.9,4.9,20,0.00,,SKC,0.00,VWS V14.01,2013-02-11 23:20:00,
2013-02-11 15:25:00,43.5,5.1,30.16,NNW,337,4.0,4.9,20,0.00,,SKC,0.00,VWS V14.01,2013-02-11 23:25:00,
2013-02-11 15:30:00,43.3,5.0,30.16,North,0,6.3,6.3,20,0.00,,SKC,0.00,VWS V14.01,2013-02-11 23:30:00,
2013-02-11 15:35:00,43.3,5.0,30.16,NE,54,2.7,4.9,20,0.00,,SKC,0.00,VWS V14.01,2013-02-11 23:35:00,
2013-02-11 15:40:00,43.2,4.8,30.16,North,353,2.7,3.6,20,0.00,,SKC,0.00,VWS V14.01,2013-02-11 23:40:00,
2013-02-11 15:45:00,43.5,5.1,30.16,NNW,331,0.0,2.7,20,0.00,,SKC,0.00,VWS V14.01,2013-02-11 23:45:00,
2013-02-11 15:50:00,44.2,5.7,30.16,WNW,288,5.4,5.4,20,0.00,,SKC,0.00,VWS V14.01,2013-02-11 23:50:00,
2013-02-11 15:55:00,44.8,6.2,30.16,NW,319,0.0,0.0,20,0.00,,SKC,0.00,VWS V14.01,2013-02-11 23:55:00,
2013-02-11 16:00:00,45.5,6.8,30.16,NW,317,4.9,4.9,20,0.00,,SKC,0.00,VWS V14.01,2013-02-12 00:00:00,
2013-02-11 16:05:00,46.0,7.2,30.16,NNW,348,0.0,0.0,20,0.00,,SKC,0.00,VWS V14.01,2013-02-12 00:05:00,
2013-02-11 16:10:00,46.8,6.7,30.16,WNW,298,2.7,4.0,19,0.00,,SKC,0.00,VWS V14.01,2013-02-12 00:10:00,
2013-02-11 16:15:00,46.4,6.4,30.16,WNW,287,2.7,4.9,19,0.00,,SKC,0.00,VWS V14.01,2013-02-12 00:15:00,
2013-02-11 16:20:00,46.2,7.4,30.16,NW,316,4.0,4.9,20,0.00,,SKC,0.00,VWS V14.01,2013-02-12 00:20:00,
2013-02-11 16:25:00,46.4,6.4,30.16,NW,306,0.0,0.0,19,0.00,,SKC,0.00,VWS V14.01,2013-02-12 00:25:00,
2013-02-11 16:30:00,46.2,7.4,30.16,North,7,0.0,0.0,20,0.00,,SKC,0.00,VWS V14.01,2013-02-12 00:30:00,
2013-02-11 16:35:00,46.0,7.2,30.16,NNE,30,0.0,0.0,20,0.00,,SKC,0.00,VWS V14.01,2013-02-12 00:35:00,
2013-02-11 16:40:00,46.0,7.2,30.19,North,353,0.0,0.0,20,0.00,,SKC,0.00,VWS V14.01,2013-02-12 00:40:00,
2013-02-11 16:45:00,46.2,7.4,30.19,North,350,0.0,0.0,20,0.00,,SKC,0.00,VWS V14.01,2013-02-12 00:45:00,
2013-02-11 16:50:00,45.3,6.6,30.19,NNW,338,0.0,0.0,20,0.00,,SKC,0.00,VWS V14.01,2013-02-12 00:50:00,
2013-02-11 16:55:00,43.5,5.1,30.19,West,275,4.0,4.0,20,0.00,,SKC,0.00,VWS V14.01,2013-02-12 00:55:00,
2013-02-11 17:00:00,41.7,4.7,30.19,West,272,2.7,4.0,21,0.00,,SKC,0.00,VWS V14.01,2013-02-12 01:00:00,
2013-02-11 17:05:00,39.2,2.6,30.19,WNW,283,2.7,3.1,21,0.00,,SKC,0.00,VWS V14.01,2013-02-12 01:05:00,
2013-02-11 17:10:00,38.1,1.6,30.19,WNW,290,2.2,2.2,21,0.00,,SKC,0.00,VWS V14.01,2013-02-12 01:10:00,
2013-02-11 17:15:00,37.0,1.7,30.19,WNW,286,0.0,0.0,22,0.00,,SKC,0.00,VWS V14.01,2013-02-12 01:15:00,
2013-02-11 17:20:00,36.3,1.1,30.19,WNW,288,0.0,0.0,22,0.00,,SKC,0.00,VWS V14.01,2013-02-12 01:20:00,
2013-02-11 17:25:00,35.4,0.4,30.19,WNW,291,0.0,0.0,22,0.00,,SKC,0.00,VWS V14.01,2013-02-12 01:25:00,
2013-02-11 17:30:00,34.5,-0.4,30.19,WNW,291,0.0,0.0,22,0.00,,SKC,0.00,VWS V14.01,2013-02-12 01:30:00,
2013-02-11 17:35:00,34.2,-0.7,30.19,WNW,290,0.0,0.0,22,0.00,,SKC,0.00,VWS V14.01,2013-02-12 01:35:00,
2013-02-11 17:40:00,34.5,2.3,30.19,WNW,285,0.0,0.0,25,0.00,,SKC,0.00,VWS V14.01,2013-02-12 01:40:00,
2013-02-11 17:45:00,34.3,2.2,30.19,WNW,285,0.0,0.0,25,0.00,,SKC,0.00,VWS V14.01,2013-02-12 01:45:00,
2013-02-11 17:50:00,34.0,1.9,30.19,WNW,285,0.0,0.0,25,0.00,,SKC,0.00,VWS V14.01,2013-02-12 01:50:00,
2013-02-11 17:55:00,33.6,1.6,30.19,WNW,286,0.0,0.0,25,0.00,,SKC,0.00,VWS V14.01,2013-02-12 01:55:00,
2013-02-11 18:00:00,32.7,0.8,30.19,WNW,285,0.0,0.0,25,0.00,,SKC,0.00,VWS V14.01,2013-02-12 02:00:00,
2013-02-11 18:04:00,32.0,0.2,30.19,WNW,286,0.0,0.0,25,0.00,,SKC,0.00,VWS V14.01,2013-02-12 02:04:00,
2013-02-11 18:09:00,31.5,-0.3,30.19,WNW,285,0.0,0.0,25,0.00,,SKC,0.00,VWS V14.01,2013-02-12 02:09:00,
2013-02-11 18:14:00,31.1,-0.6,30.19,WNW,286,0.0,0.0,25,0.00,,SKC,0.00,VWS V14.01,2013-02-12 02:14:00,
2013-02-11 18:19:00,30.6,-1.1,30.19,WNW,285,0.0,0.0,25,0.00,,SKC,0.00,VWS V14.01,2013-02-12 02:19:00,
2013-02-11 18:24:00,29.8,-1.7,30.19,WNW,285,0.0,0.0,25,0.00,,SKC,0.00,VWS V14.01,2013-02-12 02:24:00,
2013-02-11 18:29:00,29.5,0.4,30.19,WNW,285,0.0,0.0,28,0.00,,SKC,0.00,VWS V14.01,2013-02-12 02:29:00,
2013-02-11 18:34:00,29.5,1.9,30.19,WNW,286,0.0,0.0,30,0.00,,SKC,0.00,VWS V14.01,2013-02-12 02:34:00,
2013-02-11 18:39:00,29.5,1.9,30.19,WNW,285,0.0,0.0,30,0.00,,SKC,0.00,VWS V14.01,2013-02-12 02:39:00,
2013-02-11 18:44:00,28.9,1.4,30.19,WNW,286,0.0,0.0,30,0.00,,SKC,0.00,VWS V14.01,2013-02-12 02:44:00,
2013-02-11 18:49:00,28.6,1.8,30.19,WNW,285,0.0,0.0,31,0.00,,SKC,0.00,VWS V14.01,2013-02-12 02:49:00,
2013-02-11 18:54:00,28.6,1.8,30.19,WNW,285,0.0,0.0,31,0.00,,SKC,0.00,VWS V14.01,2013-02-12 02:54:00,
2013-02-11 18:59:00,28.6,1.8,30.19,WNW,286,0.0,0.0,31,0.00,,SKC,0.00,VWS V14.01,2013-02-12 02:59:00,
2013-02-11 19:04:00,28.4,2.3,30.19,WNW,284,0.0,0.0,32,0.00,,SKC,0.00,VWS V14.01,2013-02-12 03:04:00,
2013-02-11 19:09:00,28.2,2.2,30.22,WNW,284,0.0,0.0,32,0.00,,SKC,0.00,VWS V14.01,2013-02-12 03:09:00,
2013-02-11 19:14:00,28.0,2.0,30.22,WNW,284,0.0,0.0,32,0.00,,SKC,0.00,VWS V14.01,2013-02-12 03:14:00,
2013-02-11 19:19:00,27.9,1.8,30.22,WNW,284,0.0,0.0,32,0.00,,SKC,0.00,VWS V14.01,2013-02-12 03:19:00,
2013-02-11 19:24:00,27.9,1.8,30.22,SE,127,2.7,2.7,32,0.00,,SKC,0.00,VWS V14.01,2013-02-12 03:24:00,
2013-02-11 19:29:00,27.9,1.8,30.22,SE,127,3.1,3.1,32,0.00,,SKC,0.00,VWS V14.01,2013-02-12 03:29:00,
2013-02-11 19:34:00,28.0,2.7,30.22,SE,128,0.0,0.0,33,0.00,,SKC,0.00,VWS V14.01,2013-02-12 03:34:00,
2013-02-11 19:39:00,28.4,3.0,30.22,SE,128,0.0,0.0,33,0.00,,SKC,0.00,VWS V14.01,2013-02-12 03:39:00,
2013-02-11 19:44:00,28.2,2.8,30.22,SE,128,0.0,0.0,33,0.00,,SKC,0.00,VWS V14.01,2013-02-12 03:44:00,
2013-02-11 19:49:00,28.2,2.8,30.22,ESE,122,0.0,0.0,33,0.00,,SKC,0.00,VWS V14.01,2013-02-12 03:49:00,
2013-02-11 19:54:00,28.2,2.8,30.22,ESE,120,0.0,0.0,33,0.00,,SKC,0.00,VWS V14.01,2013-02-12 03:54:00,
2013-02-11 19:59:00,28.2,2.8,30.22,ESE,122,0.0,0.0,33,0.00,,SKC,0.00,VWS V14.01,2013-02-12 03:59:00,
2013-02-11 20:04:00,28.6,2.5,30.22,ESE,122,0.0,0.0,32,0.00,,SKC,0.00,VWS V14.01,2013-02-12 04:04:00,
2013-02-11 20:09:00,28.6,2.5,30.22,ESE,122,0.0,0.0,32,0.00,,SKC,0.00,VWS V14.01,2013-02-12 04:09:00,
2013-02-11 20:14:00,28.0,2.7,30.22,ESE,122,0.0,0.0,33,0.00,,SKC,0.00,VWS V14.01,2013-02-12 04:14:00,
2013-02-11 20:19:00,27.0,1.7,30.22,ESE,122,0.0,0.0,33,0.00,,SKC,0.00,VWS V14.01,2013-02-12 04:19:00,
2013-02-11 20:24:00,26.2,1.7,30.22,ESE,122,0.0,0.0,34,0.00,,SKC,0.00,VWS V14.01,2013-02-12 04:24:00,
2013-02-11 20:29:00,26.4,1.9,30.22,ESE,119,0.0,0.0,34,0.00,,SKC,0.00,VWS V14.01,2013-02-12 04:29:00,
2013-02-11 20:34:00,27.0,2.3,30.22,ESE,115,0.0,0.0,34,0.00,,SKC,0.00,VWS V14.01,2013-02-12 04:34:00,
2013-02-11 20:39:00,27.3,2.7,30.22,SE,126,4.0,4.0,34,0.00,,SKC,0.00,VWS V14.01,2013-02-12 04:39:00,
2013-02-11 20:44:00,27.5,2.8,30.22,ESE,122,4.0,4.0,34,0.00,,SKC,0.00,VWS V14.01,2013-02-12 04:44:00,
2013-02-11 20:49:00,28.2,3.5,30.22,ESE,120,4.0,4.9,34,0.00,,SKC,0.00,VWS V14.01,2013-02-12 04:49:00,
2013-02-11 20:54:00,28.4,3.6,30.22,ESE,121,4.0,4.0,34,0.00,,SKC,0.00,VWS V14.01,2013-02-12 04:54:00,
2013-02-11 20:59:00,28.6,3.1,30.22,SE,133,3.6,5.4,33,0.00,,SKC,0.00,VWS V14.01,2013-02-12 04:59:00,
2013-02-11 21:00:00,28.6,3.1,30.22,SE,133,4.0,5.4,33,0.00,,SKC,0.00,VWS V14.01,2013-02-12 05:00:00,
2013-02-11 21:05:00,28.4,3.6,30.22,SE,129,4.0,6.3,34,0.00,,SKC,0.00,VWS V14.01,2013-02-12 05:05:00,
2013-02-11 21:10:00,28.4,3.0,30.22,SE,142,3.6,5.8,33,0.00,,SKC,0.00,VWS V14.01,2013-02-12 05:10:00,
2013-02-11 21:15:00,28.2,3.5,30.22,SE,124,2.7,3.1,34,0.00,,SKC,0.00,VWS V14.01,2013-02-12 05:15:00,
2013-02-11 21:20:00,28.2,3.5,30.19,SE,130,4.9,4.9,34,0.00,,SKC,0.00,VWS V14.01,2013-02-12 05:20:00,
2013-02-11 21:25:00,28.4,3.0,30.19,SE,133,5.4,5.8,33,0.00,,SKC,0.00,VWS V14.01,2013-02-12 05:25:00,
2013-02-11 21:30:00,28.6,3.1,30.19,SE,136,4.9,5.4,33,0.00,,SKC,0.00,VWS V14.01,2013-02-12 05:30:00,
2013-02-11 21:35:00,28.4,3.0,30.19,SE,131,4.0,4.9,33,0.00,,SKC,0.00,VWS V14.01,2013-02-12 05:35:00,
2013-02-11 21:40:00,28.4,3.0,30.19,SE,126,3.1,4.0,33,0.00,,SKC,0.00,VWS V14.01,2013-02-12 05:40:00,
2013-02-11 21:45:00,28.6,3.1,30.19,ESE,123,4.0,4.0,33,0.00,,SKC,0.00,VWS V14.01,2013-02-12 05:45:00,
2013-02-11 21:50:00,28.4,3.0,30.22,SE,131,3.6,5.4,33,0.00,,SKC,0.00,VWS V14.01,2013-02-12 05:50:00,
2013-02-11 21:55:00,28.4,3.0,30.22,SE,127,4.0,5.4,33,0.00,,SKC,0.00,VWS V14.01,2013-02-12 05:55:00,
2013-02-11 22:00:00,28.2,2.8,30.22,SE,136,5.4,5.8,33,0.00,,SKC,0.00,VWS V14.01,2013-02-12 06:00:00,
2013-02-11 22:05:00,28.2,2.8,30.19,SE,128,5.4,6.7,33,0.00,,SKC,0.00,VWS V14.01,2013-02-12 06:05:00,
2013-02-11 22:10:00,28.2,2.8,30.19,SE,138,3.1,4.0,33,0.00,,SKC,0.00,VWS V14.01,2013-02-12 06:10:00,
2013-02-11 22:15:00,27.9,2.5,30.19,SE,131,3.6,4.0,33,0.00,,SKC,0.00,VWS V14.01,2013-02-12 06:15:00,
2013-02-11 22:20:00,28.0,2.7,30.19,SSE,163,0.0,0.0,33,0.00,,SKC,0.00,VWS V14.01,2013-02-12 06:20:00,
2013-02-11 22:25:00,28.0,2.7,30.19,SE,142,5.8,6.3,33,0.00,,SKC,0.00,VWS V14.01,2013-02-12 06:25:00,
2013-02-11 22:30:00,27.9,2.5,30.19,ESE,120,4.0,4.9,33,0.00,,SKC,0.00,VWS V14.01,2013-02-12 06:30:00,
2013-02-11 22:35:00,27.7,2.3,30.19,SE,128,3.6,4.5,33,0.00,,SKC,0.00,VWS V14.01,2013-02-12 06:35:00,
2013-02-11 22:40:00,27.7,2.3,30.19,ESE,112,2.7,3.1,33,0.00,,SKC,0.00,VWS V14.01,2013-02-12 06:40:00,
2013-02-11 22:45:00,27.9,2.5,30.19,ESE,109,0.0,4.0,33,0.00,,SKC,0.00,VWS V14.01,2013-02-12 06:45:00,
2013-02-11 22:50:00,27.9,2.5,30.19,SE,129,4.0,4.0,33,0.00,,SKC,0.00,VWS V14.01,2013-02-12 06:50:00,
2013-02-11 22:55:00,27.9,2.5,30.19,ESE,110,3.1,4.9,33,0.00,,SKC,0.00,VWS V14.01,2013-02-12 06:55:00,
2013-02-11 23:00:00,28.0,2.7,30.19,ESE,118,2.2,4.0,33,0.00,,SKC,0.00,VWS V14.01,2013-02-12 07:00:00,
2013-02-11 23:05:00,27.9,2.5,30.19,SE,133,3.1,3.6,33,0.00,,SKC,0.00,VWS V14.01,2013-02-12 07:05:00,
2013-02-11 23:10:00,27.9,2.5,30.19,SE,131,3.1,3.6,33,0.00,,SKC,0.00,VWS V14.01,2013-02-12 07:10:00,
2013-02-11 23:15:00,27.9,2.5,30.19,SE,132,2.7,2.7,33,0.00,,SKC,0.00,VWS V14.01,2013-02-12 07:15:00,
2013-02-11 23:20:00,27.9,2.5,30.22,ESE,106,3.6,4.0,33,0.00,,SKC,0.00,VWS V14.01,2013-02-12 07:20:00,
2013-02-11 23:25:00,28.0,2.7,30.22,ESE,118,4.0,4.9,33,0.00,,SKC,0.00,VWS V14.01,2013-02-12 07:25:00,
2013-02-11 23:30:00,27.9,2.5,30.22,ESE,120,4.0,4.0,33,0.00,,SKC,0.00,VWS V14.01,2013-02-12 07:30:00,
2013-02-11 23:35:00,27.7,2.3,30.22,ESE,112,4.0,5.4,33,0.00,,SKC,0.00,VWS V14.01,2013-02-12 07:35:00,
2013-02-11 23:40:00,27.5,2.2,30.22,ESE,119,4.0,4.0,33,0.00,,SKC,0.00,VWS V14.01,2013-02-12 07:40:00,
2013-02-11 23:45:00,27.5,2.2,30.22,SE,126,4.0,4.0,33,0.00,,SKC,0.00,VWS V14.01,2013-02-12 07:45:00,
2013-02-11 23:50:00,27.3,2.0,30.22,ESE,120,2.2,2.7,33,0.00,,SKC,0.00,VWS V14.01,2013-02-12 07:50:00,
2013-02-11 23:55:00,27.0,1.7,30.22,East,91,0.0,0.0,33,0.00,,SKC,0.00,VWS V14.01,2013-02-12 07:55:00,